Volver al catálogo

THOR AGENA B R/B

ActivoSSO
NORAD 2174·ROCKET BODY·🇺🇸 United States

Lanzado May 15, 1966 desde Vandenberg Space Force Base

Loading…

Próximos Pases (próximas 24 horas)

TLE

ActualizadoSource: Space-Track

Época: Sep 14, 2026, 05:41 UTC

1 02174U 66040B   26257.23709400 -.00000001  00000-0  86967-4 0  9999
2 02174 100.3243 184.8065 0055828 190.1105 340.1042 13.36313920941117

Sigue THOR AGENA B R/B en tiempo real con AllMySat

Download on the App Store